DW0156 Weather Reports


Display with metric or nautical units.
time (UTC)temp
F
wind
direction
speed
MPH
gust
MPH
rain 1hr
in
rain 24hr
in
rain mn
in
humidity
%
barometer
mb
20260902103358 55 263 5.0 17.0 0.00 0.00 0.00 76 1016.0
20260902102857 55 263 6.0 17.0 0.00 0.00 0.00 76 1015.9
20260902101729 57 263 5.0 17.0 0.00 0.00 0.00 72 1015.9
20260902100620 57 263 3.0 11.0 0.00 0.00 0.00 67 1015.6
20260902100108 57 263 3.0 11.0 0.00 0.00 0.00 67 1015.6
20260902094944 57 263 3.0 10.0 0.00 0.00 0.00 65 1015.4
20260902094453 57 263 2.0 9.0 0.00 0.00 0.00 65 1015.4
20260902093938 57 263 2.0 6.0 0.00 0.00 0.00 65 1015.3
20260902092759 57 263 1.0 7.0 0.00 0.00 0.00 65 1015.0
20260902092250 57 263 1.0 8.0 0.00 0.00 0.00 66 1015.0
20260902091731 57 263 2.0 8.0 0.00 0.00 0.00 65 1015.0
20260902091236 57 263 2.0 10.0 0.00 0.00 0.00 64 1015.1
20260902090731 57 263 2.0 10.0 0.00 0.00 0.00 65 1015.1
20260902090237 57 263 3.0 10.0 0.00 0.00 0.00 65 1015.1
20260902085741 57 263 3.0 10.0 0.00 0.00 0.00 66 1014.9
20260902084620 57 263 3.0 9.0 0.00 0.00 0.00 67 1014.9
20260902082844 57 263 3.0 10.0 0.00 0.00 0.00 66 1014.8
20260902082348 57 263 3.0 10.0 0.00 0.00 0.00 66 1014.8
20260902081849 57 263 3.0 10.0 0.00 0.00 0.00 65 1014.8
20260902080105 58 263 3.0 10.0 0.00 0.00 0.00 66 1014.6
20260902075550 58 263 4.0 11.0 0.00 0.00 0.00 66 1014.7
20260902075054 58 263 4.0 11.0 0.00 0.00 0.00 65 1014.7
20260902074549 58 263 5.0 13.0 0.00 0.00 0.00 65 1014.7
20260902073420 58 263 4.0 13.0 0.00 0.00 0.00 64 1014.6
20260902072919 58 263 4.0 13.0 0.00 0.00 0.00 65 1014.6
20260902071736 58 263 2.0 9.0 0.00 0.00 0.00 65 1014.6
20260902071238 58 263 3.0 9.0 0.00 0.00 0.00 65 1014.8
20260902070720 58 263 2.0 9.0 0.00 0.00 0.00 65 1014.8
20260902070219 59 263 3.0 9.0 0.00 0.00 0.00 64 1014.8
20260902065722 59 263 3.0 9.0 0.00 0.00 0.00 63 1014.7
20260902065211 59 263 3.0 9.0 0.00 0.00 0.00 64 1014.7
20260902064656 59 263 2.0 9.0 0.00 0.01 0.00 63 1014.7
20260902064142 59 263 2.0 8.0 0.00 0.02 0.00 63 1014.8
20260902063034 59 263 2.0 9.0 0.00 0.03 0.00 62 1014.8
20260902062524 59 263 2.0 9.0 0.00 0.04 0.00 62 1014.8
20260902062006 59 263 3.0 9.0 0.00 0.05 0.00 61 1014.8
20260902061451 59 263 2.0 7.0 0.00 0.06 0.00 61 1014.8
20260902055832 59 263 2.0 8.0 0.00 0.11 0.00 60 1014.9
20260902055314 59 263 3.0 8.0 0.00 0.11 0.00 61 1014.9
20260902054755 59 263 3.0 8.0 0.00 0.11 0.00 61 1014.9
20260902054305 59 263 3.0 7.0 0.00 0.11 0.00 62 1014.9
20260902053813 59 263 3.0 7.0 0.00 0.11 0.00 61 1014.9
20260902053318 59 263 2.0 6.0 0.00 0.11 0.00 61 1014.9
20260902052816 59 263 3.0 10.0 0.00 0.11 0.00 60 1014.9
20260902052309 59 263 3.0 10.0 0.00 0.11 0.00 60 1014.9
20260902051812 59 263 4.0 10.0 0.00 0.11 0.00 60 1014.9
20260902051304 59 263 4.0 10.0 0.00 0.11 0.00 60 1014.9
20260902050758 59 263 3.0 9.0 0.00 0.11 0.00 59 1014.9
20260902050237 59 263 3.0 6.0 0.00 0.11 0.00 59 1014.9
20260902045731 59 263 3.0 10.0 0.00 0.11 0.00 61 1015.0
20260902045240 59 263 3.0 10.0 0.00 0.11 0.00 62 1015.0
20260902044056 59 263 3.0 14.0 0.00 0.11 0.00 62 1015.2
20260902043550 59 263 5.0 14.0 0.00 0.11 0.00 61 1015.2
20260902043036 59 263 4.0 14.0 0.00 0.11 0.00 61 1015.2
20260902041913 59 263 4.0 10.0 0.00 0.11 0.00 61 1015.4
20260902041412 60 263 4.0 9.0 0.00 0.11 0.00 62 1015.4
20260902040903 60 263 4.0 13.0 0.00 0.11 0.00 61 1015.5
20260902040344 61 263 5.0 13.0 0.00 0.11 0.00 62 1015.5
20260902035854 60 263 4.0 13.0 0.00 0.11 0.00 62 1015.5
20260902035401 60 263 3.0 13.0 0.00 0.11 0.00 63 1015.5
20260902034906 60 263 2.0 8.0 0.00 0.11 0.00 63 1015.5
20260902034356 60 263 3.0 11.0 0.00 0.11 0.00 63 1015.8
20260902033851 59 263 4.0 11.0 0.00 0.11 0.00 65 1015.8
20260902033400 59 263 4.0 11.0 0.00 0.11 0.00 66 1015.8
20260902032900 58 263 4.0 11.0 0.00 0.11 0.00 65 1015.9
20260902032349 58 263 4.0 10.0 0.00 0.11 0.00 65 1015.9
20260902031227 58 263 4.0 10.0 0.00 0.11 0.00 66 1016.0
20260902030732 58 263 5.0 10.0 0.00 0.11 0.00 66 1016.0
20260902030228 58 263 4.0 10.0 0.00 0.11 0.00 66 1016.0
20260902025721 58 263 3.0 11.0 0.00 0.11 0.00 66 1016.2
20260902025228 58 263 4.0 11.0 0.00 0.11 0.00 66 1016.2
20260902024731 58 263 4.0 17.0 0.00 0.11 0.00 66 1016.2
20260902024223 58 263 3.0 17.0 0.00 0.11 0.00 68 1016.4
20260902023723 57 263 5.0 17.0 0.00 0.11 0.00 69 1016.4
20260902022552 58 263 6.0 12.0 0.00 0.11 0.00 70 1016.5
20260902022057 58 263 7.0 12.0 0.00 0.11 0.00 71 1016.5
20260902020942 58 263 5.0 13.0 0.00 0.11 0.00 74 1016.6
20260902020442 58 263 5.0 13.0 0.00 0.11 0.00 75 1016.6
20260902015936 58 263 6.0 13.0 0.00 0.11 0.00 74 1016.6
20260902015445 58 263 5.0 11.0 0.00 0.11 0.00 73 1016.8
20260902014934 59 263 4.0 11.0 0.00 0.11 0.00 71 1016.8
20260902013740 58 263 4.0 10.0 0.00 0.11 0.00 66 1016.9
20260902012636 58 263 3.0 8.0 0.00 0.11 0.00 67 1017.0
20260902012123 58 263 3.0 10.0 0.00 0.11 0.00 68 1017.0
20260902011624 58 263 4.0 10.0 0.00 0.11 0.00 70 1017.0
20260902011106 58 263 4.0 12.0 0.00 0.11 0.00 70 1017.0
20260902010608 58 263 4.0 12.0 0.00 0.11 0.00 70 1017.0
20260902010057 58 263 5.0 12.0 0.00 0.11 0.00 70 1017.0
20260902005544 58 263 4.0 10.0 0.00 0.11 0.00 72 1017.3
20260902005035 58 263 4.0 10.0 0.00 0.11 0.00 73 1017.3
20260902004537 57 263 4.0 9.0 0.00 0.11 0.00 73 1017.3
20260902004038 58 263 4.0 9.0 0.00 0.11 0.00 73 1017.5
20260902003530 58 263 4.0 9.0 0.00 0.11 0.00 72 1017.5
20260902003038 57 263 4.0 9.0 0.00 0.11 0.00 72 1017.5
20260902002526 57 263 3.0 11.0 0.00 0.11 0.00 73 1017.5
20260902002026 57 263 3.0 11.0 0.00 0.11 0.00 73 1017.5
20260902001535 57 263 4.0 11.0 0.00 0.11 0.00 75 1017.5
20260902001041 57 263 4.0 11.0 0.00 0.11 0.00 76 1017.5
20260901235922 57 263 4.0 10.0 0.00 0.11 0.00 78 1017.5
20260901235413 57 263 4.0 10.0 0.00 0.11 0.00 78 1017.5
20260901234912 57 263 3.0 10.0 0.00 0.11 0.00 79 1017.5
20260901234410 57 263 3.0 9.0 0.00 0.11 0.00 80 1017.5
20260901233909 57 263 4.0 9.0 0.00 0.11 0.00 81 1017.5
20260901233405 57 263 3.0 8.0 0.00 0.11 0.00 81 1017.5
20260901232902 56 263 2.0 6.0 0.00 0.11 0.00 83 1017.5
20260901232353 56 263 2.0 6.0 0.00 0.11 0.00 83 1017.5
20260901231840 56 263 3.0 8.0 0.00 0.11 0.00 84 1017.5
20260901231328 56 263 2.0 8.0 0.00 0.11 0.00 85 1017.6
20260901230819 56 263 3.0 8.0 0.00 0.11 0.00 85 1017.6
20260901230315 56 263 2.0 8.0 0.00 0.11 0.00 86 1017.6
20260901225814 56 263 2.0 6.0 0.00 0.11 0.00 86 1017.6
20260901225308 56 263 2.0 8.0 0.00 0.11 0.00 87 1017.6
20260901224812 56 263 2.0 8.0 0.00 0.11 0.00 87 1017.6
20260901224254 56 263 3.0 8.0 0.00 0.11 0.00 87 1017.5
20260901223801 56 263 3.0 8.0 0.00 0.11 0.00 88 1017.5
20260901223305 56 263 2.0 6.0 0.00 0.11 0.00 88 1017.5
20260901222752 55 263 1.0 5.0 0.00 0.11 0.00 89 1017.4
20260901222248 55 263 0.0 3.0 0.00 0.11 0.00 89 1017.4
20260901220518 55 263 0.0 0.0 0.00 0.11 0.00 89 1017.2
20260901220009 54 263 0.0 1.0 0.00 0.11 0.00 90 1017.2
20260901215519 54 263 0.0 3.0 0.00 0.11 0.00 90 1017.0
20260901215006 54 263 0.0 4.0 0.00 0.11 0.00 90 1017.0
20260901214455 54 263 0.0 4.0 0.00 0.11 0.00 90 1017.0
20260901213954 54 263 0.0 9.0 0.00 0.11 0.00 90 1017.0
20260901213438 54 263 2.0 9.0 0.00 0.11 0.00 90 1017.0
20260901212923 54 263 3.0 9.0 0.00 0.11 0.00 90 1017.0
20260901212421 54 263 2.0 9.0 0.00 0.11 0.00 91 1016.9
20260901211308 54 263 0.0 4.0 0.00 0.11 0.00 91 1016.7
20260901210805 53 263 0.0 0.0 0.00 0.11 0.00 91 1016.7
20260901210245 53 263 0.0 4.0 0.00 0.11 0.00 91 1016.7
20260901205122 54 263 0.0 0.0 0.00 0.11 0.00 91 1016.5
20260901204609 54 263 0.0 0.0 0.00 0.11 0.00 91 1016.5
20260901204053 54 263 0.0 0.0 0.00 0.11 0.00 91 1016.4
20260901203547 54 263 0.0 0.0 0.00 0.11 0.00 91 1016.4
20260901203028 54 263 0.0 3.0 0.00 0.11 0.00 91 1016.4
20260901202510 54 263 1.0 3.0 0.00 0.11 0.00 91 1016.4
20260901202006 54 263 1.0 3.0 0.00 0.11 0.00 91 1016.4
20260901200900 54 263 0.0 0.0 0.00 0.11 0.00 91 1016.4
20260901200354 54 263 0.0 0.0 0.00 0.11 0.00 91 1016.4
20260901195858 54 263 0.0 0.0 0.00 0.11 0.00 91 1016.5
20260901195400 54 263 0.0 0.0 0.00 0.11 0.00 91 1016.5
20260901194858 54 263 0.0 0.0 0.00 0.11 0.00 91 1016.5
20260901194348 54 263 0.0 0.0 0.00 0.11 0.00 91 1016.5
20260901193838 54 263 0.0 0.0 0.00 0.11 0.00 91 1016.5
20260901193320 54 263 0.0 0.0 0.00 0.11 0.00 91 1016.5
20260901192130 54 263 0.0 0.0 0.00 0.11 0.00 91 1016.4
20260901191616 54 263 0.0 2.0 0.00 0.11 0.00 91 1016.4
20260901190447 54 263 0.0 0.0 0.00 0.11 0.00 91 1016.3
20260901185942 55 263 0.0 0.0 0.00 0.11 0.00 91 1016.3
20260901185438 54 263 0.0 0.0 0.00 0.11 0.00 91 1016.4
20260901184935 54 263 0.0 2.0 0.00 0.11 0.00 91 1016.4
20260901184416 54 263 0.0 0.0 0.00 0.11 0.00 91 1016.4
20260901183305 54 263 0.0 0.0 0.00 0.11 0.00 91 1016.2
20260901182137 54 263 0.0 0.0 0.00 0.11 0.00 91 1016.1
20260901181618 54 263 0.0 0.0 0.00 0.11 0.00 91 1016.1
20260901181107 54 263 0.0 0.0 0.00 0.11 0.00 91 1016.0
20260901175334 53 263 0.0 0.0 0.00 0.11 0.00 91 1016.0
20260901174820 53 263 0.0 0.0 0.00 0.11 0.00 91 1016.0
20260901174313 53 263 0.0 0.0 0.00 0.11 0.00 90 1016.1
20260901173816 53 263 0.0 0.0 0.00 0.11 0.00 90 1016.1
20260901172649 53 263 0.0 0.0 0.00 0.11 0.00 90 1016.3
20260901172157 53 263 0.0 0.0 0.00 0.11 0.00 90 1016.3
20260901171640 54 263 0.0 0.0 0.00 0.11 0.00 90 1016.3
20260901170506 54 263 0.0 0.0 0.00 0.11 0.00 90 1016.4
20260901165947 54 263 0.0 0.0 0.00 0.11 0.00 90 1016.4
20260901165439 54 263 0.0 0.0 0.00 0.11 0.00 90 1016.4
20260901164946 55 263 0.0 0.0 0.00 0.11 0.00 90 1016.4
20260901164432 55 263 0.0 0.0 0.00 0.11 0.00 90 1016.4
20260901163938 55 263 0.0 0.0 0.00 0.11 0.00 90 1016.6
20260901163430 55 263 0.0 0.0 0.00 0.11 0.00 90 1016.6
20260901161658 55 263 0.0 0.0 0.00 0.11 0.00 90 1016.6
20260901160541 55 263 0.0 0.0 0.00 0.11 0.00 89 1016.5
20260901160038 55 263 0.0 0.0 0.00 0.11 0.00 89 1016.5
20260901155537 56 263 0.0 0.0 0.00 0.11 0.00 90 1016.4
20260901153808 56 263 0.0 0.0 0.00 0.11 0.00 89 1016.4
20260901153249 56 263 0.0 0.0 0.00 0.11 0.00 89 1016.4
20260901152753 56 263 0.0 0.0 0.00 0.11 0.00 89 1016.4
20260901152236 56 263 0.0 0.0 0.00 0.11 0.00 89 1016.4
20260901151742 56 263 0.0 0.0 0.00 0.11 0.00 89 1016.4
20260901151238 56 263 0.0 0.0 0.00 0.11 0.00 89 1016.3
20260901150747 56 263 0.0 1.0 0.00 0.11 0.00 89 1016.3
20260901150244 57 263 0.0 0.0 0.00 0.11 0.00 89 1016.3
20260901145729 57 263 0.0 0.0 0.00 0.11 0.00 88 1016.3
20260901145225 57 263 0.0 0.0 0.00 0.11 0.00 88 1016.3
20260901144717 57 263 0.0 0.0 0.00 0.11 0.00 88 1016.3
20260901143544 58 263 0.0 0.0 0.00 0.11 0.00 88 1016.3
20260901143048 58 263 0.0 0.0 0.00 0.11 0.00 88 1016.3
20260901142533 58 263 0.0 1.0 0.00 0.11 0.11 88 1016.4
20260901142042 58 263 0.0 0.0 0.00 0.11 0.11 88 1016.4
20260901141551 58 263 0.0 0.0 0.00 0.11 0.11 88 1016.4
20260901141053 58 263 0.0 0.0 0.00 0.11 0.11 88 1016.4
20260901140600 59 263 0.0 0.0 0.00 0.11 0.11 88 1016.4
20260901140108 59 263 0.0 0.0 0.00 0.11 0.11 88 1016.4
20260901135605 59 263 0.0 0.0 0.00 0.11 0.11 88 1016.4
20260901134416 59 263 0.0 1.0 0.00 0.11 0.11 88 1016.4
20260901133907 59 263 0.0 0.0 0.00 0.11 0.11 88 1016.5
20260901133351 59 263 0.0 2.0 0.00 0.11 0.11 88 1016.5
20260901132844 59 263 1.0 0.0 0.00 0.11 0.11 88 1016.6
20260901132335 60 263 1.0 4.0 0.00 0.11 0.11 88 1016.6
20260901131816 60 263 1.0 4.0 0.00 0.11 0.11 88 1016.6
20260901131312 60 263 1.0 4.0 0.00 0.11 0.11 88 1016.4
20260901130153 60 263 0.0 3.0 0.00 0.11 0.11 87 1016.4
20260901125649 60 263 0.0 0.0 0.00 0.11 0.11 87 1016.6
20260901125151 60 263 0.0 0.0 0.00 0.11 0.11 87 1016.6
20260901124029 59 263 0.0 0.0 0.00 0.11 0.11 86 1016.7
20260901123533 60 263 0.0 0.0 0.00 0.11 0.11 86 1016.7
20260901123031 60 263 0.0 0.0 0.00 0.11 0.11 86 1016.7
20260901122540 60 263 0.0 0.0 0.00 0.11 0.11 86 1016.8
20260901122040 60 263 0.0 0.0 0.00 0.11 0.11 86 1016.8
20260901121538 60 263 0.0 0.0 0.00 0.11 0.11 86 1016.8
20260901120411 60 263 0.0 0.0 0.00 0.11 0.11 86 1016.5
20260901115249 60 263 0.0 0.0 0.00 0.11 0.11 86 1016.5
20260901114751 60 263 0.0 0.0 0.00 0.11 0.11 86 1016.5
20260901113022 60 263 0.0 0.0 0.00 0.11 0.11 85 1016.4
20260901112522 60 263 0.0 0.0 0.00 0.11 0.11 85 1016.4
20260901112026 60 263 0.0 0.0 0.00 0.11 0.11 85 1016.4
20260901111525 60 263 0.0 0.0 0.00 0.11 0.11 85 1016.4
20260901111025 60 263 0.0 0.0 0.00 0.11 0.11 85 1016.3
20260901110526 60 263 0.0 0.0 0.00 0.11 0.11 85 1016.3
20260901104734 60 263 0.0 0.0 0.00 0.11 0.11 85 1016.2